Flag for Malaysia Weather past 2 weeks in Johor Bahru, Malaysia

Now
88 °F

Broken clouds.


Feels Like: 100 °F
Forecast: 79 / 89 °F
Wind: 7 mph from South

Location: Singapore / Paya Lebar


UV Index: 7 (High)

Visibility: N/A


Pressure: 29.86 "Hg

Humidity: 70%

Dew point: 77 °F

Location of Johor BahruLocation

Historic Weather in Johor Bahru

°F

Johor Bahru temperature yesterday

Maximum temperature yesterday: 90 °F (at 3:00 PM)
Minimum temperature yesterday: 77 °F (at 12:00 PM)
Average temperature yesterday: 83 °F

Past Weeks' High & Low Weather Summary

 TemperatureHumidityPressure
High95 °F (Apr 7, 2:00 PM)100% (Apr 4, 2:00 PM)29.92 "Hg (Apr 4, 2:00 PM)
Low77 °F (Apr 4, 2:00 PM)44% (Apr 7, 2:00 PM)29.71 "Hg (Apr 3, 4:00 PM)
Average84 °F76%29.82 "Hg
* Reported Apr 3 10:00 AM — Apr 18 10:00 AM, Johor Bahru, Weather by CustomWeather, © 2014

Note: Actual official high and low records may vary slightly from our data, if they occured in-between our weather recording intervals... More about our weather records

Advertising

Historic Weather Conditions — Data for Previous 24 hours

 ConditionsComfort  
Time TempWeatherWind HumidityBarometerVisibility
10:00 AM
Apr 18
84 °FBroken clouds.5 mph84%29.86 "HgN/A
9:00 AM84 °FPartly sunny.1 mph84%29.86 "HgN/A
8:00 AM81 °FPartly sunny.1 mph89%29.80 "HgN/A
7:00 AM81 °FPartly sunny.No wind94%29.80 "HgN/A
6:00 AM81 °FPassing clouds.No wind89%29.77 "HgN/A
5:00 AM81 °FPassing clouds.1 mph94%29.80 "HgN/A
11:00 PM
Apr 17
81 °FPassing clouds.No wind89%29.80 "HgN/A
10:00 PM79 °FLight rain. Passing clouds.No wind89%29.80 "HgN/A
9:00 PM79 °FThunderstorms. Passing clouds.6 mph89%29.80 "Hg5 mi
8:00 PM86 °FThundershowers. Passing clouds.2 mph75%29.77 "HgN/A
7:00 PM86 °FPartly sunny.2 mph70%29.74 "Hg6 mi
6:00 PM86 °FThundershowers. Partly sunny.3 mph75%29.71 "Hg5 mi
5:00 PM88 °FThunderstorms. Scattered clouds.5 mph66%29.71 "HgN/A
4:00 PM88 °FPartly sunny.6 mph66%29.71 "HgN/A
3:00 PM90 °FBroken clouds.3 mph63%29.74 "HgN/A
2:00 PM84 °FPartly sunny.1 mph74%29.77 "HgN/A
1:00 PM79 °FScattered clouds.1 mph94%29.80 "HgN/A
12:00 PM77 °FThunderstorms. Scattered clouds.9 mph94%29.83 "Hg5 mi
11:00 AM86 °FSprinkles. Broken clouds.7 mph75%29.83 "Hg3 mi
Weather by CustomWeather, © 2014

See weather overview